FW4257 Weather Reports


time (UTC)temp
C
wind
direction
speed
KPH
gust
KPH
rain 1hr
cm
rain 24hr
cm
rain mn
cm
humidity
%
barometer
mb
20260505090250 9 271 0.0 0.0 0.00 0.00 0.00 85 1022.0
20260505085731 9 271 0.0 0.0 0.00 0.00 0.00 84 1021.9
20260505085229 9 271 0.0 0.0 0.00 0.00 0.00 84 1021.9
20260505084732 10 271 0.0 0.0 0.00 0.00 0.00 84 1021.8
20260505084240 10 271 0.0 0.0 0.00 0.00 0.00 83 1021.8
20260505083736 10 271 0.0 0.0 0.00 0.00 0.00 82 1021.8
20260505083230 10 271 0.0 0.0 0.00 0.00 0.00 82 1021.7
20260505082725 10 271 0.0 0.0 0.00 0.00 0.00 81 1021.6
20260505082233 10 271 0.0 0.0 0.00 0.00 0.00 81 1021.6
20260505081724 10 271 0.0 0.0 0.00 0.00 0.00 81 1021.6
20260505081219 10 271 0.0 0.0 0.00 0.00 0.00 80 1021.5
20260505080714 10 271 0.0 0.0 0.00 0.00 0.00 79 1021.5
20260505080215 11 271 0.0 0.0 0.00 0.00 0.00 79 1021.3
20260505075714 11 271 0.0 0.0 0.00 0.00 0.00 78 1021.2
20260505075218 11 271 0.0 0.0 0.00 0.00 0.00 77 1021.1
20260505074720 11 271 0.0 0.0 0.00 0.00 0.00 77 1021.0
20260505074219 11 271 0.0 0.0 0.00 0.00 0.00 76 1021.0
20260505073717 11 271 0.0 1.6 0.00 0.00 0.00 75 1020.9
20260505073211 12 271 0.0 1.6 0.00 0.00 0.00 75 1020.8
20260505072712 12 268 0.0 0.0 0.00 0.00 0.00 74 1020.9
20260505072207 12 268 0.0 0.0 0.00 0.00 0.00 73 1020.7
20260505071711 12 268 0.0 0.0 0.00 0.00 0.00 72 1020.6
20260505071155 12 268 0.0 0.0 0.00 0.00 0.00 72 1020.6
20260505070643 12 268 0.0 0.0 0.00 0.00 0.00 71 1020.4
20260505070137 12 261 0.0 9.7 0.00 0.00 0.00 71 1020.3
20260505065624 13 253 1.6 9.7 0.00 0.00 0.00 70 1020.4
20260505065108 13 250 0.0 9.7 0.00 0.00 0.00 69 1020.3
20260505064604 13 268 0.0 4.8 0.00 0.00 0.00 69 1020.3
20260505064052 13 273 0.0 3.2 0.00 0.00 0.00 69 1020.3
20260505063545 13 265 0.0 11.3 0.00 0.00 0.00 69 1020.3
20260505063026 13 271 0.0 11.3 0.00 0.00 0.00 69 1020.2
20260505062209 13 255 0.0 3.2 0.00 0.00 0.00 69 1020.2
20260505061402 13 248 3.2 14.5 0.00 0.00 0.00 68 1020.0
20260505060902 13 255 4.8 14.5 0.00 0.00 0.00 67 1020.1
20260505060045 13 267 4.8 14.5 0.00 0.00 0.00 68 1020.1
20260505055547 13 260 4.8 12.9 0.00 0.00 0.00 67 1019.9
20260505055033 13 253 3.2 14.5 0.00 0.00 0.00 67 1019.8
20260505054521 13 226 3.2 14.5 0.00 0.03 0.00 69 1019.8
20260505054030 13 257 4.8 20.9 0.00 0.03 0.00 67 1019.7
20260505053512 14 259 6.4 20.9 0.00 0.08 0.00 68 1019.6
20260505052703 14 261 6.4 20.9 0.00 0.13 0.00 68 1019.4
20260505052156 14 271 6.4 16.1 0.00 0.15 0.00 67 1019.4
20260505051637 14 223 6.4 16.1 0.00 0.20 0.00 67 1019.4
20260505050843 15 233 3.2 16.1 0.00 0.25 0.00 67 1019.3
20260505050351 15 264 3.2 16.1 0.00 0.25 0.00 67 1019.2
20260505041401 15 242 1.6 16.1 0.00 0.25 0.00 66 1019.1
20260505040601 15 269 4.8 16.1 0.00 0.28 0.00 65 1019.0
20260505040050 15 256 1.6 16.1 0.00 0.28 0.00 65 1019.1
20260505035553 15 272 1.6 16.1 0.00 0.28 0.00 66 1019.1
20260505035043 15 252 3.2 14.5 0.00 0.28 0.00 65 1018.9
20260505034542 15 282 3.2 14.5 0.00 0.28 0.00 66 1018.9
20260505034044 15 296 1.6 12.9 0.00 0.28 0.00 64 1019.0
20260505033528 15 277 1.6 12.9 0.00 0.28 0.00 66 1019.1
20260505032724 15 281 3.2 14.5 0.00 0.28 0.00 64 1019.2
20260505032223 15 279 3.2 16.1 0.00 0.28 0.00 66 1019.4
20260505031723 15 274 3.2 16.1 0.00 0.28 0.00 66 1019.5
20260505031218 15 264 3.2 16.1 0.00 0.28 0.00 66 1019.6
20260505030710 15 257 3.2 16.1 0.00 0.28 0.00 67 1019.6
20260505030158 15 260 1.6 12.9 0.00 0.28 0.00 65 1019.7
20260505025648 15 271 1.6 16.1 0.00 0.28 0.00 68 1019.7
20260505024831 15 236 1.6 12.9 0.00 0.28 0.00 66 1019.7
20260505024341 15 256 0.0 11.3 0.00 0.28 0.00 66 1019.9
20260505023831 15 313 0.0 1.6 0.00 0.28 0.00 68 1019.9
20260505023331 15 258 0.0 11.3 0.00 0.28 0.00 68 1019.9
20260505022839 14 248 1.6 14.5 0.00 0.28 0.00 67 1020.0
20260505022342 14 289 3.2 14.5 0.00 0.28 0.00 69 1020.0
20260505020928 14 232 1.6 12.9 0.00 0.28 0.00 68 1020.3
20260505020436 14 333 1.6 12.9 0.00 0.28 0.00 69 1020.3
20260505015934 14 242 1.6 11.3 0.00 0.28 0.00 69 1020.3
20260505015425 14 273 0.0 12.9 0.00 0.28 0.00 68 1020.2
20260505014908 14 253 0.0 12.9 0.00 0.28 0.00 71 1020.2
20260505014054 14 263 1.6 19.3 0.00 0.28 0.00 73 1020.2
20260505013557 13 337 3.2 19.3 0.00 0.28 0.00 73 1020.3
20260505013037 13 261 3.2 19.3 0.00 0.28 0.00 73 1020.4
20260505012519 13 281 3.2 17.7 0.00 0.28 0.00 73 1020.3
20260505012026 13 260 3.2 17.7 0.00 0.28 0.00 73 1020.3
20260505011211 13 261 3.2 16.1 0.00 0.28 0.00 74 1020.3
20260505010651 13 254 3.2 14.5 0.00 0.28 0.00 75 1020.3
20260505005849 13 259 4.8 14.5 0.00 0.28 0.00 76 1020.3
20260505005341 13 279 3.2 14.5 0.00 0.28 0.00 76 1020.3
20260505004823 13 275 3.2 14.5 0.00 0.28 0.00 78 1020.4
20260505004307 12 323 0.0 11.3 0.00 0.28 0.00 77 1020.5
20260505003813 12 300 0.0 6.4 0.00 0.28 0.00 80 1020.5
20260505003323 12 254 1.6 11.3 0.00 0.28 0.00 78 1020.6
20260505002802 12 270 1.6 11.3 0.00 0.28 0.00 79 1020.7
20260505002249 12 290 0.0 9.7 0.00 0.28 0.00 80 1020.7
20260505001753 12 263 1.6 12.9 0.00 0.28 0.00 78 1020.8
20260505001240 12 227 1.6 12.9 0.00 0.28 0.00 81 1020.7
20260505000743 12 229 1.6 12.9 0.00 0.28 0.00 79 1020.7
20260505000251 12 246 1.6 12.9 0.00 0.28 0.00 82 1020.7
20260504235438 12 257 1.6 11.3 0.00 0.28 0.00 80 1020.8
20260504234637 12 259 1.6 11.3 0.00 0.28 0.00 81 1020.7
20260504234144 12 234 0.0 8.0 0.00 0.28 0.00 82 1020.7
20260504233336 12 246 0.0 4.8 0.00 0.28 0.00 84 1020.6
20260504232821 11 259 0.0 3.2 0.00 0.28 0.00 84 1020.6
20260504232312 11 257 0.0 6.4 0.00 0.28 0.00 85 1020.6
20260504231816 11 241 1.6 6.4 0.00 0.28 0.00 85 1020.6
20260504231304 11 243 0.0 6.4 0.00 0.28 0.00 85 1020.6
20260504230804 11 250 0.0 6.4 0.00 0.28 0.00 87 1020.5
20260504230300 11 229 1.6 0.0 0.00 0.28 0.00 87 1020.4
20260504225744 11 234 1.6 9.7 0.00 0.28 0.00 87 1020.3
20260504225234 11 252 1.6 9.7 0.00 0.28 0.00 87 1020.2
20260504224739 11 236 1.6 12.9 0.00 0.28 0.00 88 1020.2
20260504223645 11 261 1.6 12.9 0.00 0.28 0.00 89 1020.0
20260504223147 10 257 0.0 12.9 0.00 0.30 0.00 90 1020.0
20260504222639 10 273 0.0 1.6 0.00 0.30 0.00 91 1020.1
20260504222141 10 273 0.0 4.8 0.00 0.30 0.00 91 1020.1
20260504221622 10 274 0.0 0.0 0.00 0.36 0.00 91 1020.0
20260504221104 10 274 0.0 4.8 0.00 0.36 0.00 91 1019.9
20260504220559 10 275 0.0 4.8 0.00 0.38 0.00 91 1019.9
20260504215802 10 265 0.0 0.0 0.00 0.41 0.00 92 1019.7
20260504215251 10 265 0.0 9.7 0.00 0.43 0.00 92 1019.6
20260504214437 10 269 1.6 9.7 0.00 0.43 0.00 92 1019.5
20260504213927 10 270 0.0 8.0 0.00 0.46 0.00 93 1019.5
20260504213108 10 300 0.0 3.2 0.00 0.46 0.00 93 1019.4
20260504212557 10 300 0.0 1.6 0.00 0.46 0.00 93 1019.4
20260504212057 10 300 0.0 1.6 0.00 0.46 0.00 93 1019.2
20260504211602 10 300 0.0 3.2 0.00 0.46 0.00 93 1019.2
20260504211054 9 300 0.0 3.2 0.00 0.53 0.00 93 1019.0
20260504210546 9 300 0.0 1.6 0.00 0.56 0.00 93 1019.0
20260504210028 9 300 0.0 0.0 0.00 0.56 0.00 93 1018.9
20260504205528 9 300 0.0 0.0 0.00 0.58 0.00 93 1018.9
20260504205013 9 300 0.0 3.2 0.00 0.58 0.00 93 1018.8
20260504204458 9 294 0.0 0.0 0.00 0.58 0.00 92 1018.5
20260504203956 9 294 0.0 0.0 0.00 0.58 0.00 92 1018.5
20260504203504 9 294 0.0 0.0 0.00 0.58 0.00 92 1018.3
20260504202946 9 294 0.0 0.0 0.00 0.58 0.00 92 1018.3
20260504202430 9 294 0.0 3.2 0.00 0.58 0.00 92 1018.3
20260504201935 9 294 0.0 0.0 0.00 0.58 0.00 92 1018.3
20260504201436 9 294 0.0 0.0 0.00 0.58 0.00 92 1018.1
20260504200932 9 294 0.0 1.6 0.00 0.58 0.00 92 1018.0
20260504200133 9 294 0.0 3.2 0.00 0.58 0.00 92 1017.9
20260504195621 9 264 0.0 0.0 0.00 0.58 0.00 92 1017.8
20260504195104 9 264 0.0 0.0 0.00 0.58 0.00 92 1017.7
20260504194556 9 264 0.0 0.0 0.00 0.58 0.00 92 1017.6
20260504193736 10 264 0.0 0.0 0.00 0.58 0.00 92 1017.7
20260504193240 9 264 0.0 0.0 0.00 0.58 0.00 92 1017.7
20260504192740 9 258 0.0 12.9 0.00 0.58 0.00 92 1017.6
20260504192222 9 258 1.6 12.9 0.00 0.58 0.00 92 1017.6
20260504191426 9 269 0.0 12.9 0.00 0.58 0.00 92 1017.6
20260504190924 9 300 0.0 9.7 0.00 0.58 0.00 92 1017.6
20260504190417 9 311 0.0 8.0 0.00 0.58 0.00 92 1017.6
20260504185901 9 281 0.0 8.0 0.00 0.58 0.00 92 1017.6
20260504185342 9 288 0.0 0.0 0.00 0.58 0.00 92 1017.5
20260504184838 9 288 0.0 3.2 0.00 0.58 0.00 92 1017.4
20260504184334 9 288 0.0 0.0 0.00 0.58 0.00 92 1017.4
20260504183842 9 288 0.0 6.4 0.00 0.58 0.00 92 1017.3
20260504183338 9 311 0.0 3.2 0.00 0.58 0.00 92 1017.2
20260504182841 10 291 0.0 3.2 0.00 0.58 0.00 92 1017.2
20260504182347 10 286 0.0 3.2 0.00 0.58 0.00 92 1017.1
20260504181842 10 277 0.0 1.6 0.00 0.58 0.00 92 1017.1
20260504181051 10 262 0.0 0.0 0.00 0.58 0.00 92 1017.0
20260504180242 10 278 1.6 9.7 0.00 0.61 0.00 93 1016.9
20260504175732 10 265 0.0 8.0 0.00 0.61 0.00 94 1016.8
20260504175228 9 305 0.0 4.8 0.00 0.61 0.00 94 1016.8
20260504174723 9 308 0.0 3.2 0.00 0.64 0.00 95 1016.8
20260504174207 9 309 0.0 0.0 0.00 0.64 0.00 94 1016.8
20260504173353 9 309 0.0 3.2 0.00 0.64 0.00 94 1016.7
20260504172900 9 314 0.0 3.2 0.00 0.64 0.00 95 1016.6
20260504172358 9 314 0.0 0.0 0.00 0.66 0.00 95 1016.6
20260504171902 9 305 0.0 4.8 0.00 0.66 0.00 95 1016.6
20260504171404 9 326 0.0 4.8 0.00 0.66 0.00 95 1016.6
20260504170602 9 321 0.0 1.6 0.00 0.71 0.00 95 1016.5
20260504160257 9 314 0.0 4.8 0.00 0.74 0.00 95 1016.8
20260504150519 10 324 0.0 6.4 0.00 0.86 0.00 94 1017.0
20260504140613 10 311 0.0 8.0 0.00 1.22 0.00 94 1017.1
20260504130642 11 273 0.0 8.0 0.00 1.27 1.22 95 1017.2
20260504120153 11 317 0.0 0.0 0.00 1.27 1.22 96 1017.7
20260504110239 11 317 0.0 4.8 0.00 1.27 1.22 96 1017.1
20260504100602 12 308 0.0 0.0 0.00 1.27 1.22 96 1016.6